Meteo Giornale » Osservazioni meteo Stati Uniti (USA) » Nome Nome
ore: 13:41 - Osservazioni Meteo Nome Nome
Lat. 64° 30' N Lon. 165° 27' W Alt. 11 metri s.l.m.
7 °C
Coperto
Temp. 24 Ore
2 °C
8 °C
Ovest/Nord-Ovest
11.1 Km/h
Dew point 4 °C
Umidità 81 %
Visibilità 10 Km
Il sole sorge alle ore 07:41
Il sole tramonta alle ore 22:22
| Data e Ora | Cielo e Fenomeni | T °C | DP °C | Um. % | Pres. hPa | Vis. km | Vento km/h | |
|---|---|---|---|---|---|---|---|---|
| Oggi h: 13:41 | Coperto | 7 | 4 | 81 | 1015 | 10 | O/NO 11.1 | |
| Oggi h: 13:15 | Coperto | 7 | 4 | 81 | 1015 | 10 | NO 11.1 | |
| Oggi h: 13:04 | Coperto | 7 | 4 | 81 | 1015 | 10 | O/NO 11.1 | |
| Oggi h: 12:53 | Coperto | 7 | 4 | 81 | 1015 | 10 | O/NO 9.3 | |
| Oggi h: 11:53 | Coperto | 6 | 3 | 81 | 1015 | 10 | N 0 | |
| Oggi h: 10:53 | Coperto | 5 | 2 | 80 | 1015 | 10 | N 0 | |
| Oggi h: 09:53 | Coperto | 4 | 2 | 86 | 1015 | 10 | N 5.5 | |
| Oggi h: 08:53 | Coperto | 2 | 1 | 93 | 1014 | 10 | N 0 | |
| Oggi h: 07:53 | Coperto | 2 | 1 | 93 | 1014 | 10 | N 5.5 | |
| Oggi h: 06:53 | Sereno | 2 | 2 | 100 | 1014 | 10 | O/NO 13 | |
| Oggi h: 05:53 | Coperto | 3 | 1 | 86 | 1014 | 10 | N 0 | |
| Oggi h: 04:53 | Molto Nuvoloso | 3 | 2 | 93 | 1013 | 10 | NO 13 | |
| Oggi h: 03:53 | Sereno | 4 | 2 | 86 | 1013 | 10 | O/NO 18.5 | |
| Oggi h: 02:53 | Sereno | 3 | 1 | 86 | 1012 | 10 | NO 14.8 | |
| Oggi h: 01:53 | Nuvoloso | 3 | 2 | 93 | 1013 | 10 | NO 22.2 | |
| Oggi h: 00:53 | Sereno | 2 | 1 | 93 | 1012 | 10 | O 13 | |
| Ieri h: 23:53 | Sereno | 3 | 1 | 86 | 1011 | 10 | O/NO 22.2 | |
| Ieri h: 22:53 | Sereno | 3 | 1 | 86 | 1011 | 10 | O/NO 27.8 | |
| Ieri h: 21:53 | Sereno | 4 | 1 | 80 | 1010 | 10 | O/NO 27.8 | |
| Ieri h: 20:53 | Sereno | 4 | 2 | 86 | 1010 | 10 | O/NO 35.2 | |
| Ieri h: 19:53 | Molto Nuvoloso | 4 | 2 | 86 | 1009 | 10 | O 31.5 | |
| Ieri h: 19:45 | Pioggia | 4 | 1 | 80 | 1009 | 10 | O/NO 27.8 | |
| Ieri h: 19:05 | Pioggia | 4 | 2 | 86 | 1009 | 10 | NO 31.5 | |
| Ieri h: 18:53 | Molto Nuvoloso | 5 | 2 | 80 | 1009 | 10 | NO 31.5 | |
| Ieri h: 17:53 | Molto Nuvoloso | 5 | 2 | 80 | 1008 | 10 | O/NO 37 | |
| Ieri h: 16:53 | Pioggia | 4 | 2 | 86 | 1008 | 10 | O/NO 29.6 | |
| Ieri h: 16:14 | Coperto | 4 | 2 | 86 | 1008 | 10 | O 31.5 | |
| Ieri h: 16:07 | Coperto | 4 | 2 | 86 | 1008 | 10 | O 33.3 | |
| Ieri h: 15:53 | Pioggia | 4 | 2 | 86 | 1008 | 10 | O/NO 25.9 | |
| Ieri h: 15:09 | Pioggia | 5 | 3 | 86 | 1008 | 10 | O/NO 37 | |
| Ieri h: 14:53 | Coperto | 8 | 2 | 65 | 1008 | 10 | O/NO 51.8 | |
| Ieri h: 13:53 | Pioggia | 8 | 4 | 75 | 1008 | 14 | O/SO 29.6 | |



